GFSNE_925_spd_072.txt.gz
Wind_Speed
11 8 9 12 13 17 14 13 11 2 4 18 21 21 21 21 19 22 24 21 18 18 22 26 26 27 22 21 22 25 25 24 25 25 26 27 27 28
9 10 12 13 17 16 15 15 18 20 6 17 19 21 23 24 23 24 24 23 20 22 22 22 24 23 24 24 24 25 26 26 26 25 26 26 26 27
14 13 15 15 17 17 16 17 17 18 15 21 22 22 24 26 23 22 22 20 21 21 22 21 23 23 29 27 26 25 23 23 23 23 23 23 24 24
17 16 17 18 20 20 21 23 22 23 24 22 28 29 30 30 32 28 27 26 23 20 20 23 26 31 30 26 26 25 23 23 22 22 23 23 23 23
14 16 19 18 18 19 19 20 22 22 23 26 26 28 29 27 29 30 29 24 19 24 22 23 18 20 23 26 28 26 25 24 22 21 21 21 22 21
18 19 18 19 19 20 23 24 24 25 24 23 24 26 25 26 27 27 26 19 15 17 19 19 21 22 25 25 24 26 28 26 23 21 24 25 24 23
16 17 19 21 22 23 25 27 29 30 29 27 27 25 24 23 21 20 14 21 20 17 18 16 19 19 15 16 21 24 17 16 17 20 21 21 23 24
14 16 19 21 23 26 29 30 36 36 33 28 27 24 25 25 28 23 18 13 7 18 17 18 15 17 20 22 23 21 20 16 18 20 18 18 18 19
15 18 21 20 23 26 26 24 25 26 30 36 32 29 28 29 26 25 21 15 16 19 16 16 17 21 24 22 20 18 20 22 24 21 19 19 18 20
14 16 19 21 21 25 31 34 33 29 27 27 31 39 39 36 31 30 25 21 18 18 15 16 20 23 22 18 17 19 23 21 18 19 18 19 21 23
14 14 17 22 23 26 30 33 34 33 30 30 28 27 28 36 35 27 18 13 12 18 16 18 23 23 20 17 15 16 15 19 19 17 19 21 22 24
16 21 21 21 24 27 32 31 33 35 32 31 31 34 30 32 32 35 28 18 14 9 20 19 21 10 5 14 7 16 21 20 18 18 21 22 21 23
18 20 22 24 28 33 35 35 35 39 37 33 32 30 28 24 29 29 28 25 19 21 20 16 15 9 10 12 15 19 22 22 21 24 22 21 20 19
17 21 25 29 32 31 32 32 36 34 32 28 26 26 25 22 24 27 24 24 25 26 19 17 12 10 12 15 13 18 21 24 22 22 22 19 19 18
18 20 26 27 27 29 27 29 29 28 28 23 24 25 26 25 26 24 22 23 24 25 24 23 22 20 16 18 16 19 22 24 22 17 19 21 18 18
21 26 24 25 20 26 27 28 27 27 30 27 24 25 25 22 24 26 23 23 20 21 22 22 21 20 20 20 20 21 22 18 24 21 20 15 16 15
22 22 23 19 22 23 25 26 28 28 29 36 25 23 22 21 20 18 21 19 19 18 19 19 21 22 24 24 21 23 22 21 20 15 13 18 18 15
17 19 18 19 20 21 23 26 26 28 29 31 35 23 17 19 20 20 21 20 17 17 16 16 16 14 18 23 25 26 20 18 12 14 16 16 18 19
16 17 17 18 20 20 20 23 26 27 30 28 29 34 14 11 7 12 17 19 18 17 18 16 16 16 4 3 13 7 9 10 11 15 12 13 16 23
14 16 18 19 20 20 21 23 25 27 27 30 30 30 25 14 12 14 16 16 16 16 16 16 18 17 13 5 2 6 10 14 15 15 14 15 17 14
15 15 17 20 20 20 22 23 24 24 26 27 29 29 30 26 14 14 17 21 18 15 12 14 17 11 8 3 2 12 13 8 11 13 11 12 11 7
14 16 18 19 21 21 22 22 23 24 25 25 27 27 26 28 25 18 17 13 16 15 15 13 9 8 5 6 9 15 11 3 6 9 11 11 7 2
17 19 18 18 21 22 22 21 23 24 24 26 24 26 27 27 29 30 18 16 14 17 15 13 12 11 10 9 11 10 9 9 8 9 12 13 11 11

GFSNE_925_spd_075.txt.gz
Wind_Speed
19 16 15 15 15 17 19 14 12 3 3 11 17 20 20 20 19 17 21 25 26 25 24 21 19 17 17 18 19 18 19 22 24 24 25 25 25 26
17 13 13 15 17 17 18 20 17 16 5 12 16 18 20 24 25 25 21 24 26 26 25 24 21 19 19 21 21 19 20 20 21 21 22 23 24 24
15 15 15 16 19 18 19 16 16 17 12 17 23 26 27 27 28 29 32 32 29 30 30 26 21 21 21 23 21 19 22 19 20 19 19 21 22 23
14 13 15 17 17 18 20 22 24 24 25 23 28 29 27 26 23 23 25 25 28 31 35 26 21 21 24 21 21 21 22 20 23 22 19 19 19 20
10 12 12 13 17 20 20 19 20 21 23 28 29 31 31 29 28 25 26 30 34 31 21 22 28 26 16 17 19 21 20 20 24 26 24 22 22 21
8 10 15 19 20 21 23 25 27 29 29 31 33 35 29 29 27 27 27 22 20 19 20 21 26 26 21 20 18 15 17 20 21 22 23 23 24 25
9 11 9 9 11 14 17 18 20 26 28 30 24 25 25 26 26 28 22 21 26 27 24 22 21 23 24 19 15 15 20 20 18 18 18 21 22 20
7 10 12 15 14 13 13 14 14 17 19 20 20 20 25 24 29 27 27 20 12 25 26 27 23 21 16 16 19 20 19 15 15 17 19 21 20 17
5 6 7 9 14 18 21 25 27 29 27 21 25 24 25 24 27 26 25 25 21 29 21 22 21 22 20 21 19 17 18 18 18 18 22 23 21 21
5 8 11 14 17 21 25 27 29 31 29 29 26 32 31 27 24 28 30 31 30 31 23 16 22 25 23 19 17 16 16 16 13 15 18 18 21 23
8 9 12 13 14 18 24 28 30 32 31 28 28 28 31 33 34 31 26 26 22 23 25 23 21 20 21 19 13 12 12 9 11 14 16 17 20 23
8 10 10 11 15 19 21 25 28 31 33 37 36 34 32 31 29 27 29 24 19 7 15 16 21 15 5 10 11 11 11 17 18 15 17 21 22 22
10 13 15 16 18 18 17 21 25 31 33 29 30 28 29 30 28 23 26 26 23 16 14 15 10 12 10 6 11 17 20 21 16 18 18 18 21 17
11 13 17 19 17 16 17 19 22 26 24 25 25 27 28 28 31 28 27 26 31 31 21 14 13 15 14 9 8 15 19 21 19 19 18 17 16 18
11 14 17 15 14 14 20 20 21 22 23 22 24 26 32 33 34 28 26 27 29 23 23 20 18 17 15 16 13 16 20 23 20 10 19 18 17 14
15 16 15 14 12 19 20 20 18 20 21 22 25 29 31 29 26 25 22 22 23 24 24 23 22 21 21 21 21 22 24 12 19 21 20 14 15 14
15 15 16 15 18 19 18 17 19 21 22 23 27 29 30 31 31 23 24 21 18 17 24 25 23 20 20 21 18 22 25 26 23 19 15 15 18 13
14 17 17 14 16 18 18 17 19 21 23 26 25 27 28 28 37 22 21 20 18 21 21 22 19 16 16 18 21 24 25 24 21 12 12 14 14 15
10 14 14 14 17 16 16 18 20 21 24 23 25 27 28 28 31 31 17 16 16 18 21 21 17 16 5 4 14 12 18 16 13 14 15 12 16 20
13 14 13 16 18 18 19 20 22 24 23 24 24 25 27 26 28 29 20 13 15 16 15 19 19 19 12 7 8 10 10 11 15 15 15 13 15 9
11 11 15 18 17 19 21 22 22 21 25 24 23 24 24 24 26 25 27 23 15 16 15 17 23 18 16 11 4 6 11 8 11 12 11 10 8 4
11 15 16 16 18 22 22 22 19 22 23 21 24 22 22 23 23 25 26 24 25 20 19 17 12 13 11 11 8 7 7 3 4 7 10 12 10 2
15 15 17 19 20 22 21 19 25 26 24 24 22 22 24 25 24 23 26 26 32 17 17 15 14 13 13 13 10 9 9 9 8 6 6 8 10 12

GFSNE_925_spd_081.txt.gz
Wind_Speed
31 30 27 26 25 26 21 17 10 3 3 6 8 9 13 14 16 16 16 19 19 18 19 23 27 32 35 36 34 30 25 23 22 21 20 20 19 21
28 24 27 25 25 21 19 17 17 13 3 10 12 16 16 17 16 19 21 23 22 22 23 25 27 30 34 39 40 36 29 25 23 24 24 22 20 21
25 25 24 22 21 19 16 16 17 17 9 11 17 19 20 21 24 24 26 27 27 28 27 28 30 32 34 34 39 41 36 28 27 29 27 24 22 22
23 21 21 19 18 15 14 16 17 17 17 16 22 23 22 22 24 26 28 29 30 31 32 33 35 36 37 35 36 42 39 37 31 32 27 27 25 24
21 20 19 16 14 13 14 13 15 16 17 14 14 18 20 21 23 25 27 29 28 28 30 32 35 37 35 36 34 35 38 37 33 29 34 30 28 26
17 16 13 12 11 11 10 11 11 12 11 10 9 11 12 17 22 22 27 30 32 32 34 34 35 35 38 34 33 32 35 33 32 33 29 29 28 27
13 11 10 11 10 9 9 7 6 7 9 11 13 12 18 17 19 21 26 28 28 28 28 27 29 35 36 41 35 34 35 35 33 28 28 26 27 25
15 14 12 10 8 8 8 9 9 9 11 11 13 15 17 19 21 20 22 20 11 17 20 27 27 32 34 35 33 31 32 33 31 26 24 25 23 21
16 15 10 6 6 6 8 10 11 10 9 10 14 16 18 20 22 25 21 22 23 26 24 29 26 33 33 32 32 32 29 27 23 22 22 22 20 21
11 9 6 4 4 6 8 9 9 9 9 10 12 16 19 21 21 22 24 26 28 29 24 21 27 30 31 34 32 28 27 25 24 23 22 20 19 20
6 4 3 4 5 6 8 8 9 9 11 12 13 16 15 16 18 20 18 17 21 23 17 19 22 25 27 31 32 29 27 24 22 20 19 18 18 19
4 2 2 3 3 5 6 7 8 12 17 19 20 19 15 16 15 16 19 19 19 16 10 14 19 16 11 16 23 19 20 20 19 18 14 14 17 19
3 2 2 4 7 6 4 4 7 11 14 17 19 20 17 16 20 19 18 19 22 25 30 25 20 16 14 11 5 12 17 17 16 12 13 15 16 17
1 4 5 7 6 4 3 6 7 11 15 16 17 14 15 19 21 23 23 22 24 29 37 30 16 16 17 8 6 12 15 14 13 14 12 13 12 12
5 6 7 6 5 3 4 6 9 13 15 15 12 14 16 18 23 23 24 21 28 30 27 32 31 24 23 16 8 10 12 11 11 13 8 8 11 12
6 8 6 5 3 4 6 7 10 13 14 12 15 18 17 19 20 22 24 24 25 31 28 25 26 25 22 23 19 12 12 8 5 9 12 13 13 11
8 7 6 3 3 5 6 7 10 10 11 14 16 17 19 19 20 20 21 24 21 24 29 24 29 25 29 21 18 17 16 16 15 15 12 12 12 10
5 2 3 3 3 4 6 7 9 11 13 15 15 18 18 19 21 20 19 20 22 25 26 30 20 17 15 18 21 20 18 18 16 15 12 12 14 11
6 5 4 3 4 5 6 8 11 12 14 13 17 20 18 20 19 19 21 20 22 23 27 29 15 12 6 6 8 20 21 19 14 12 11 12 14 16
6 4 3 5 5 7 10 13 14 15 13 15 18 16 16 20 16 19 20 21 22 24 26 25 17 17 11 8 8 13 15 16 15 13 12 11 11 8
4 5 8 8 9 11 13 15 15 13 14 19 17 15 16 18 18 20 20 22 22 20 22 22 25 21 14 14 5 9 11 13 15 14 11 7 5 4
7 7 6 8 12 14 16 15 15 17 20 18 17 15 19 19 21 21 20 20 19 22 24 26 29 24 17 15 10 9 11 11 11 12 13 12 6 3
7 9 12 15 16 16 16 18 19 20 18 18 16 21 20 21 20 20 20 18 23 22 22 24 26 23 16 14 13 13 9 8 10 7 8 8 10 11

GFSNE_925_spd_087.txt.gz
Wind_Speed
35 31 30 30 30 29 29 25 18 4 8 11 12 18 19 16 17 17 15 13 14 15 15 16 17 19 21 23 25 27 29 29 30 32 33 34 33 32
33 30 26 27 20 32 29 27 26 18 4 14 15 12 14 15 15 17 16 16 17 18 19 19 20 22 24 24 26 28 30 32 34 35 35 35 36 34
37 32 32 32 29 31 29 29 24 18 13 8 15 15 16 16 16 18 18 18 20 21 21 23 24 25 27 30 32 33 35 36 37 38 38 38 37 36
36 31 28 28 25 29 28 28 25 20 17 10 13 15 17 16 16 17 16 18 18 19 21 24 25 27 30 31 32 32 34 35 36 37 37 38 35 37
33 30 29 30 28 28 26 22 19 18 15 12 11 10 12 14 14 15 15 14 16 20 25 28 29 29 29 30 31 31 33 36 37 37 35 35 35 35
29 30 28 27 26 25 23 21 18 16 14 12 10 8 9 10 10 10 13 12 16 20 24 24 23 22 22 22 23 25 27 29 30 29 30 30 31 32
23 21 20 19 21 21 19 18 16 15 13 10 5 5 8 9 10 9 13 15 17 17 14 13 13 14 18 20 21 22 23 27 29 30 30 31 32 33
21 17 16 15 15 13 14 14 12 12 8 5 6 9 10 9 9 10 12 13 9 8 9 17 18 20 19 17 21 24 26 26 29 30 30 29 27 28
20 18 17 14 12 11 10 5 3 4 8 8 6 6 7 7 8 11 13 14 17 18 17 22 15 21 19 20 22 23 24 29 31 30 27 26 27 28
17 15 15 13 10 6 3 2 3 3 3 3 3 4 7 9 10 13 16 19 20 18 15 16 14 19 20 19 22 25 25 24 25 26 24 24 21 22
15 12 10 7 3 3 3 3 3 2 3 3 4 6 9 11 11 11 14 14 16 15 15 18 18 20 22 25 23 21 19 24 24 23 22 21 17 17
14 11 9 5 2 1 1 2 3 3 1 3 4 6 9 8 10 8 10 13 15 12 1 7 14 14 14 18 16 13 21 22 22 19 19 17 17 18
12 10 7 5 4 3 1 1 2 3 3 5 6 7 7 7 8 9 9 10 14 18 18 15 15 20 20 28 30 25 21 20 15 11 16 18 17 17
10 7 4 4 4 3 1 3 3 3 3 6 7 8 8 10 10 11 13 15 16 22 23 20 21 21 23 26 26 25 21 17 13 10 9 11 13 15
7 5 5 5 4 1 3 4 5 4 5 8 10 10 10 12 14 15 15 17 20 21 20 19 23 25 24 27 27 27 22 17 15 13 13 13 12 12
6 6 5 4 4 5 5 4 4 6 8 10 11 13 14 14 15 15 17 18 21 20 16 17 19 20 26 27 28 30 26 13 14 18 16 14 13 13
5 5 5 5 5 5 6 6 6 8 10 11 13 16 17 17 17 17 17 19 20 22 21 18 17 21 26 30 30 31 27 19 21 16 15 14 15 15
6 7 8 8 8 8 9 9 10 11 12 14 16 18 18 19 19 18 18 18 19 21 23 21 20 21 22 23 28 31 25 23 21 19 15 15 15 14
9 10 10 9 9 10 11 12 14 14 15 17 18 19 19 20 20 19 18 18 19 21 22 22 21 18 11 11 21 20 24 21 20 18 18 15 14 11
11 10 10 11 11 12 13 14 16 18 19 19 20 20 20 21 20 19 18 19 20 21 23 21 18 17 17 13 19 34 19 19 20 19 17 14 12 9
12 11 12 12 13 15 17 18 19 19 18 19 19 19 19 19 19 18 20 20 20 21 21 21 20 23 24 22 19 23 25 23 22 19 15 15 13 10
11 12 13 14 16 17 18 18 19 20 20 21 21 20 19 18 18 19 19 19 19 20 22 24 24 21 20 19 19 21 23 21 23 14 14 14 10 5
12 12 14 15 17 18 19 20 20 20 20 20 19 18 17 18 18 18 19 19 20 21 22 23 22 21 20 20 22 23 18 19 17 14 11 12 11 8